Weather History for Ukiah, CA

Change the Weather History Date:

Thursday, March 7, 2013

  Actual Average Record
Temperature  
Mean Temperature 45 °F 51 °F  
Max Temperature 55 °F 63 °F 83 °F (1953)
Min Temperature 35 °F 40 °F 25 °F (1908)
Degree Days  
Heating Degree Days 20 14  
Month to date heating degree days 99 98  
Since 1 July heating degree days 2229 2331  
Cooling Degree Days 0 0  
Month to date cooling degree days 0 0  
Year to date cooling degree days 0 0  
Moisture  
Dew Point 35 °F    
Average Humidity 67    
Maximum Humidity 92    
Minimum Humidity 41    
Precipitation  
Precipitation 0.00 in 0.19 in 1.25 in (1975)
Month to date precipitation 1.36 1.56  
Year to date precipitation 3.20 15.11  
Since 1 July precipitation 25.90 29.08  
Snow  
Snow 0.00 in - - ()
Month to date snowfall 0.0  
Since 1 July snowfall 0.0  
Snow Depth 0.00 in    
Sea Level Pressure  
Sea Level Pressure 29.96 in    
Wind  
Wind Speed 2 mph (NNW)    
Max Wind Speed 8 mph    
Max Gust Speed 12 mph    
Visibility 8 miles    
Events      
T = Trace of Precipitation, MM = Missing Value Source: NWS Daily Summary

Daily Weather History Graph

Daily Weather History Graph

Search for Another Location

Airport:

Trip Planner

Search our weather history database for the weather conditions in past years. The results will help you decide how hot, cold, wet, or windy it might be!

Date:

Astronomy

Mar. 07, 2013 Rise Set
Actual Time 6:35 AM PST 6:12 PM PST
Civil Twilight 6:09 AM PST 6:38 PM PST
Nautical Twilight 5:38 AM PST 7:09 PM PST
Astronomical Twilight 5:07 AM PST 7:40 PM PST
Moon 3:38 AM PST (3/7) 2:07 PM PST (3/7)
Length of Visible Light 12h 29m
Length of Day
11h 36m
Waning Crescent, 19% of the Moon is Illuminated
Mar 7
Waning Crescent
Mar 11
New
Mar 19
First Quarter
Mar 27
Full
Apr 2
Last Quarter

Hourly Weather History & Observations

Time (PST) Temp. Windchill Dew Point Humidity Pressure Visibility Wind Dir Wind Speed Gust Speed Precip Events Conditions
12:24 AM 35.6 °F - 33.8 °F 93% 30.01 in 10.0 mi Calm Calm - N/A   Scattered Clouds
12:36 AM 37.4 °F - 35.6 °F 93% 30.00 in 10.0 mi Calm Calm - N/A   Mostly Cloudy
12:56 AM 37.0 °F - 35.1 °F 93% 30.00 in 10.0 mi Calm Calm - N/A   Overcast
1:08 AM 37.4 °F - 35.6 °F 93% 30.01 in 10.0 mi Calm Calm - N/A   Overcast
1:24 AM 35.6 °F - 33.8 °F 93% 30.00 in 10.0 mi Calm Calm - N/A   Scattered Clouds
1:43 AM 35.6 °F - 33.8 °F 93% 30.01 in 10.0 mi Calm Calm - N/A   Scattered Clouds
1:51 AM 35.6 °F - 33.8 °F 93% 30.01 in 10.0 mi Calm Calm - N/A   Mostly Cloudy
1:56 AM 36.0 °F - 34.0 °F 93% 30.01 in 10.0 mi Calm Calm - N/A   Mostly Cloudy
2:16 AM 35.6 °F - 35.6 °F 100% 30.00 in 10.0 mi Calm Calm - N/A   Overcast
2:56 AM 37.0 °F - 35.1 °F 93% 29.98 in 7.0 mi Calm Calm - N/A   Overcast
3:33 AM 37.4 °F - 35.6 °F 93% 29.98 in 1.8 mi Calm Calm - N/A   Overcast
3:45 AM 35.6 °F - 35.6 °F 100% 29.97 in 0.8 mi Calm Calm - N/A   Mist
3:56 AM 37.0 °F - 36.0 °F 96% 29.97 in 0.8 mi Calm Calm - N/A   Mist
4:03 AM 37.4 °F - 35.6 °F 93% 29.97 in 1.2 mi Calm Calm - N/A   Overcast
4:13 AM 37.4 °F - 35.6 °F 93% 29.97 in 3.0 mi Calm Calm - N/A   Overcast
4:29 AM 37.4 °F - 35.6 °F 93% 29.97 in 2.5 mi Calm Calm - N/A   Overcast
4:36 AM 37.4 °F - 35.6 °F 93% 29.97 in 5.0 mi Calm Calm - N/A   Overcast
4:56 AM 37.0 °F - 36.0 °F 96% 29.98 in 5.0 mi Calm Calm - N/A   Overcast
5:56 AM 37.0 °F - 36.0 °F 96% 29.97 in 9.0 mi Calm Calm - N/A   Overcast
6:56 AM 37.0 °F 34.5 °F 36.0 °F 96% 29.96 in 8.0 mi NNW 3.5 mph - N/A   Overcast
7:10 AM 37.4 °F 33.8 °F 35.6 °F 93% 29.96 in 10.0 mi North 4.6 mph - N/A   Overcast
7:56 AM 37.9 °F - 35.1 °F 89% 29.96 in 10.0 mi Calm Calm - N/A   Mostly Cloudy
8:56 AM 39.0 °F - 36.0 °F 89% 29.97 in 10.0 mi Calm Calm - N/A   Overcast
9:45 AM 41.0 °F - 35.6 °F 81% 29.96 in 10.0 mi Calm Calm - N/A   Overcast
9:56 AM 41.0 °F - 36.0 °F 82% 29.97 in 10.0 mi Calm Calm - N/A   Overcast
10:56 AM 48.0 °F - 37.9 °F 68% 29.96 in 10.0 mi Calm Calm - N/A   Mostly Cloudy
11:56 AM 51.1 °F - 37.9 °F 61% 29.94 in 10.0 mi Variable 5.8 mph - N/A   Clear
12:56 PM 53.1 °F - 34.0 °F 48% 29.91 in 10.0 mi North 3.5 mph - N/A   Clear
1:56 PM 54.0 °F - 34.0 °F 47% 29.90 in 10.0 mi Calm Calm - N/A   Mostly Cloudy
2:56 PM 54.0 °F - 30.9 °F 41% 29.88 in 10.0 mi Calm Calm - N/A   Partly Cloudy
3:56 PM 54.0 °F - 32.0 °F 43% 29.88 in 10.0 mi Calm Calm - N/A   Mostly Cloudy
4:56 PM 54.0 °F - 34.0 °F 47% 29.88 in 10.0 mi South 5.8 mph - N/A   Overcast
5:56 PM 51.1 °F - 37.9 °F 61% 29.89 in 10.0 mi NNW 8.1 mph - N/A   Overcast
6:56 PM 50.0 °F - 37.0 °F 61% 29.91 in 10.0 mi Variable 4.6 mph - N/A   Overcast
7:56 PM 48.0 °F - 39.0 °F 71% 29.92 in 10.0 mi West 3.5 mph - N/A   Mostly Cloudy
8:56 PM 46.0 °F - 37.9 °F 73% 29.92 in 10.0 mi Calm Calm - N/A   Overcast
9:56 PM 43.0 °F - 37.0 °F 80% 29.92 in 10.0 mi Calm Calm - N/A   Clear
10:56 PM 41.0 °F - 36.0 °F 82% 29.92 in 10.0 mi Calm Calm - N/A   Clear
11:56 PM 39.9 °F 37.8 °F 35.1 °F 83% 29.91 in 10.0 mi NNW 3.5 mph - N/A   Clear